Welcome to the New NWS' Forecast!
Most changes are behind the scenes, but click here for differences you might notice.
Latest weather observations around

Chicago, Chicago-O'Hare International Airport (KORD)

Using English Units (Switch to International System of Units)
Date/ Time (CST) Wind (mph) Vis. (mi) Weather Sky Cond. Temp (°F) Rel. Humidity Wind Chill (°F) Heat Index (°F) Pressure Precip. (in)
Air Dwpt 6 hour Altimeter (inHg) Sea level (inHg) 1 hr 3 hr 6 hr
Max Min
Nov 18 01:51 NNE 6 1.25 Light Drizzle and Fog/Mist OVC005 47 44     90% 44   29.53 29.54 0    
Nov 18 01:28 NE 5 1.25 Fog/Mist OVC006 47 45     93% 45   29.54   0    
Nov 18 00:51 N 3 1.75 Light Rain and Fog/Mist OVC005 47 45     93% 46   29.56 29.56 0    
Nov 18 00:22 NNW 6 2 Light Drizzle and Fog/Mist OVC006 47 45     93% 44   29.56   0    
Nov 18 00:14 NW 7 3 Light Drizzle and Fog/Mist OVC007 47 45     93% 44   29.56   0    
Nov 17 23:51 SW 8 5 Fog/Mist OVC008 48 45     89% 44   29.55 29.56 0   0
Nov 17 22:51 SW 10 3 Light Rain and Fog/Mist OVC007 47 44     90% 42   29.57 29.57 0    
Nov 17 21:51 SSW 15 4 Light Rain and Fog/Mist OVC008 46 43     89% 40   29.58 29.58 0    
Nov 17 20:51 SSW 11 4 Light Rain and Fog/Mist OVC008 45 42     90% 39   29.59 29.6 0 0  
Nov 17 20:45 SSW 15 4 Light Rain and Fog/Mist OVC008 45 43     93% 38   29.59   0    
Nov 17 20:21 S 13 5 Light Rain and Fog/Mist OVC008 44 41     89% 38   29.6   0    
Nov 17 19:51 S 11 4 Light Rain and Fog/Mist OVC009 43 40     89% 37   29.62 29.63 0    
Nov 17 18:51 S 15 3 Light Rain and Fog/Mist BKN008 OVC011 43 40     89% 36   29.64 29.66 0    
Nov 17 18:28 S 14 4 Light Rain and Fog/Mist BKN011 OVC015 42 39     89% 35   29.66   0    
Nov 17 18:14 S 16 5 Fog/Mist BKN018 OVC023 42 39     89% 34   29.67        
Nov 17 17:51 S 14 10 Cloudy OVC026 43 39     86% 36   29.68 29.69 0   0
Nov 17 17:43 S 14 10 Light Rain BKN026 OVC036 43 38     82% 36   29.68   0    
Nov 17 16:51 SSE 14 10 Light Rain OVC023 42 37     82% 35   29.7 29.72 0    
Nov 17 16:26 SSE 16 6 Light Rain OVC024 43 36     76% 35   29.72   0    
Nov 17 16:17 SSE 16 9 Light Rain OVC024 43 36     76% 35   29.73   0    
Nov 17 15:51 SSE 17 9 Cloudy FEW014 OVC024 42 36     79% 34   29.75 29.76 0    
Nov 17 15:37 SSE 15 6 Haze BKN016 OVC022 41 36     82% 33   29.77   0    
Nov 17 15:23 SSE 15 4 Fog/Mist OVC017 40 36     86% 32   29.78   0    
Nov 17 14:51 SSE 20 5 Light Rain and Fog/Mist OVC018 40 36     86% 30   29.8 29.81 0 0  
Nov 17 14:31 S 16 5 Light Rain OVC022 41 35     79% 33   29.82   0    
Nov 17 14:21 S 18 6 Light Rain SCT019 OVC025 41 34     76% 32   29.83   0    
Nov 17 14:04 S 16 4 Light Rain OVC027 43 33     68% 35   29.84   0    
Nov 17 13:51 S 15 10 Cloudy BKN027 OVC034 44 31     60% 37   29.84 29.85      
Nov 17 13:43 S 14 10 Cloudy BKN028 OVC036 44 31     60% 37   29.84        
Nov 17 12:51 S 18 10 Cloudy SCT040 BKN075 BKN180 OVC250 44 31     60% 36   29.88 29.9      
Nov 17 11:51 SSE 17 10 Cloudy BKN085 BKN150 OVC250 43 31     62% 35   29.91 29.93      
Nov 17 10:51 SSE 18 10 Cloudy BKN085 OVC150 40 31     70% 31   29.97 29.99      
Nov 17 09:51 SSE 15 10 Cloudy FEW015 BKN085 BKN150 OVC250 39 31     72% 31   30.02 30.04      
Nov 17 09:04 S 20 10 Cloudy and Windy SCT015 OVC085 37 30     76% 27   30.05        
Nov 17 08:51 S 18 10 Cloudy BKN015 OVC150 37 30     76% 27   30.05 30.07      
Nov 17 07:51 S 13 10 Cloudy BKN015 OVC150 36 30     79% 27   30.1 30.12      
Nov 17 07:39 S 15 10 Mostly Cloudy BKN015 BKN160 36 30     79% 27   30.1        
Nov 17 06:51 SSE 13 10 Partly Cloudy FEW016 SCT170 35 29     78% 26   30.09 30.11      
Nov 17 05:51 S 10 10 Mostly Cloudy SCT017 BKN170 35 29     78% 27   30.13 30.15      
Nov 17 04:51 SSE 13 10 Cloudy BKN017 OVC170 36 30     79% 27   30.14 30.16      
Nov 17 03:51 SSE 16 10 Cloudy OVC018 37 30     76% 28   30.16 30.17      
Nov 17 02:51 S 10 10 Clear   37 30     76% 30   30.19 30.2      
Nov 17 01:51 SSE 8 10 Cloudy OVC020 37 30     76% 31   30.19 30.21      
Nov 17 00:51 S 8 10 Cloudy OVC021 37 30     76% 31   30.18 30.19      
Nov 16 23:51 S 8 10 Cloudy OVC021 38 30     73% 32   30.2 30.22      
Nov 16 22:51 SSE 6 10 Cloudy OVC021 37 30     76% 32   30.2 30.22      
Nov 16 21:51 SE 7 10 Cloudy OVC021 37 29     72% 32   30.23 30.24      
Nov 16 20:51 E 8 10 Cloudy OVC021 37 28     70% 31   30.24 30.26      
Nov 16 19:51 SSE 7 10 Cloudy OVC021 37 29     72% 32   30.25 30.27      
Nov 16 18:51 ENE 9 10 Cloudy OVC022 37 27     67% 30   30.24 30.26      
Nov 16 17:51 ENE 6 10 Cloudy OVC022 37 27     67% 32   30.25 30.27      
Nov 16 16:51 NE 6 10 Cloudy OVC022 37 27     67% 32   30.25 30.27      
Nov 16 14:51 ENE 5 10 Cloudy OVC024 38 27     64% 34   30.22 30.24      
Nov 16 13:51 N 6 10 Cloudy OVC024 37 27     67% 32   30.22 30.24      
Nov 16 12:51 N 6 10 Cloudy OVC024 37 26     64% 32   30.22 30.24      
Nov 16 11:51 N 9 10 Cloudy OVC023 36 26     67% 29   30.22 30.24      
Nov 16 10:51 NNW 10 10 Cloudy OVC022 35 26     69% 27   30.22 30.24      
Nov 16 09:51 NNW 16 10 Cloudy OVC021 35 25     66% 25   30.22 30.24      
Nov 16 08:51 NNW 20 10 Cloudy and Windy OVC022 34 25     69% 23   30.2 30.22      
Nov 16 07:51 NNW 15 10 Cloudy OVC021 34 24     67% 24   30.18 30.2      
Nov 16 06:51 NW 15 10 Cloudy OVC021 34 25     69% 24   30.15 30.16      
Nov 16 05:51   10 Cloudy OVC022 34 25     69%     30.12 30.14      
Nov 16 04:51 NW 14 10 Cloudy OVC023 34 25     69% 25   30.1 30.11      
Nov 16 04:16 WNW 9 10 Mostly Cloudy BKN024 33 25     72% 25   30.07        
Nov 16 03:51 WNW 10 10 Mostly Cloudy BKN025 33 25     72% 25   30.06 30.07      
Nov 16 03:48 WNW 9 10 Cloudy OVC025 34 25     69% 26   30.06        
Nov 16 03:24 WNW 9 10 Cloudy OVC024 33 25     72% 25   30.05        
Nov 16 02:51 WNW 11 10 Mostly Cloudy BKN025 33 25     72% 24   30.05 30.06      
Nov 16 01:51 W 8 10 Clear CLR 34 24     67% 27   30.04 30.05      
Nov 16 00:51 WNW 13 10 Mostly Cloudy BKN034 35 24     64% 26   30.01 30.02      
Nov 16 00:38 WNW 13 10 Cloudy SCT028 OVC034 35 25     66% 26   30.01        
Nov 15 23:51 WNW 20 10 Cloudy and Windy OVC025 35 25     66% 24   30 30.01      
Nov 15 23:27 WNW 21 10 Cloudy and Windy OVC025 35 25     66% 24   29.99        
Nov 15 22:51   10 Cloudy OVC023 35 26     69%     29.98 29.99      
Nov 15 21:51 NNW 25 10 Cloudy and Windy OVC018 35 27     72% 23   29.96 29.97      
Nov 15 20:51 W 17 10 Cloudy OVC018 35 28     75% 25   29.94 29.95      
Nov 15 19:51 WNW 23 10 Cloudy and Windy BKN019 OVC029 37 29     72% 26   29.91 29.92      
Nov 15 19:42 WNW 24 10 Cloudy and Windy BKN022 OVC029 38 30     73% 27   29.9        
Nov 15 19:14 WNW 21 10 Cloudy and Windy OVC027 41 33     73% 32   29.88        
Nov 15 18:51   10 Mostly Cloudy BKN032 45 35     68%     29.86 29.86      
Nov 15 17:51 W 9 10 Mostly Clear FEW030 47 38     71% 43   29.83 29.84     0
Nov 15 16:51 W 16 10 Mostly Clear FEW028 49 39     69% 43   29.81 29.82      
Nov 15 15:51 W 11 10 Partly Cloudy FEW030 SCT041 51 40     65%     29.79 29.8      
Nov 15 15:21 WNW 20 10 Mostly Cloudy and Windy SCT025 SCT030 BKN043 52 41     66%     29.78        
Nov 15 15:03 WNW 18 10 Mostly Cloudy BKN025 BKN030 BKN049 52 42     69%     29.77        
Nov 15 14:51 WNW 16 10 Cloudy SCT024 BKN035 OVC049 52 44     74%     29.76 29.76   0  
Nov 15 14:20 WNW 18 10 Cloudy FEW020 SCT031 OVC040 52 45     77%     29.76        
Nov 15 13:51 WNW 17 10 Cloudy SCT016 BKN022 OVC034 51 46     83%     29.75 29.75 0    
Nov 15 13:26 W 13 10 Mostly Cloudy FEW009 BKN015 BKN029 50 46     86% 45   29.75   0    
Nov 15 13:09 W 14 6 Fog/Mist BKN007 OVC015 49 46     90% 44   29.74   0    
Nov 15 13:00 W 14 3 Light Drizzle and Fog/Mist OVC005 49 46     90% 44   29.74   0    
Nov 15 12:51 W 13 1.75 Light Drizzle and Fog/Mist OVC004 48 46     93% 43   29.74 29.75 0    
Nov 15 12:36 WSW 11 1.5 Light Drizzle and Fog/Mist OVC004 48 45     89% 43   29.74   0    
Nov 15 12:18 WSW 10 4 Light Drizzle and Fog/Mist OVC005 47 45     93% 42   29.74   0    
Nov 15 12:04 WSW 10 5 Fog/Mist OVC006 48 45     89% 43   29.74   0    
Nov 15 11:51 WSW 11 4 Light Drizzle and Fog/Mist OVC006 48 45     89% 43   29.74 29.74 0   0
Nov 15 11:28 WSW 10 3 Light Drizzle and Fog/Mist OVC006 47 45     93% 42   29.75   0    
Nov 15 10:51 WSW 10 2.5 Light Drizzle and Fog/Mist OVC006 47 44     90% 42   29.77 29.78 0    
Nov 15 10:35 SW 11 4 Light Drizzle and Fog/Mist OVC006 46 44     93% 41   29.78   0    
Nov 15 10:02 SW 14 2 Light Drizzle and Fog/Mist OVC007 46 43     89% 40   29.79   0    
Nov 15 09:51 SSW 15 3 Light Drizzle and Fog/Mist OVC007 46 43     89% 40   29.79 29.8 0    
Nov 15 09:12 SW 10 7 Light Rain OVC007 45 42     90% 40   29.8   0    
Nov 15 08:51 S 15 3 Light Rain and Fog/Mist OVC008 45 42     90% 38   29.78 29.79 0 0  
Nov 15 08:43 S 14 3 Rain and Fog/Mist OVC008 45 42     90% 39   29.79   0    
Nov 15 08:15 S 15 2.5 Light Rain and Fog/Mist BKN007 OVC014 45 42     90% 38   29.81   0    
Nov 15 07:55 SSW 14 1.5 Light Rain and Fog/Mist OVC008 45 41     86% 39   29.83   0    
Nov 15 07:51 SSW 14 3 Light Rain and Fog/Mist OVC009 45 41     86% 39   29.83 29.83 0    
Nov 15 07:43 SSW 16 4 Light Rain and Fog/Mist OVC009 45 41     86% 38   29.83   0    
Nov 15 06:51 S 11 5 Rain and Fog/Mist OVC014 44 41     89% 38   29.85 29.86 0    
Nov 15 06:43 SSW 11 5 Light Rain OVC014 45 40     82% 39   29.86   0    
Nov 15 05:51 S 16 10 Cloudy OVC021 45 40     82% 38   29.85 29.86 0   0
Nov 15 04:51 S 14 10 Light Rain OVC023 46 39     76% 40   29.87 29.88 0    
Nov 15 04:04 S 13 10 Cloudy OVC023 47 38     71% 41   29.89        
Nov 15 03:51 S 13 10 Cloudy OVC025 47 38     71% 41   29.89 29.9 0    
Nov 15 02:51 SSW 14 9 Light Rain BKN029 OVC034 47 37     68% 41   29.95 29.96 0 0  
Jun 11 22:51 SSW 17 10 Clear CLR 84 58     41%   83 29.91 29.89      
Jun 11 14:51 SSW 13 10 Clear   91 61     37%   91 29.91 29.89      
Jun 10 09:51 SW 13 10 Mostly Cloudy BKN250 77 57     50%   77 29.87 29.86      
Jun 09 22:51 E 6 10 Mostly Clear FEW075 67 55     66%     29.83 29.81      
Jun 09 15:51 ENE 13 10 Clear   83 57     41%   82 29.76 29.75      
Jun 08 07:51 SW 5 10 Clear   67 46     47%     30.05 30.03